Location: Le Vichiesso
(46.1048°N, 7.6343°E)
Time: 18:29:55
(UTC+00:00)

Daily predictions for brighter satellites

Satellite Brightness Start Highest point End
(mag) Time Altitude Azimuth Time Altitude Azimuth Time Altitude Azimuth
Cosmos 2333 Rocket 2.7 17:47:43 10° S 17:52:57 40° ESE 17:58:16 10° NE
Cosmos 1295 Rocket 4.5 17:48:33 10° S 17:54:46 75° E 18:00:55 10° NNE
Meteor 2-4 Rocket 3.8 17:52:53 10° N 17:58:47 71° ENE 18:04:43 10° SSE
Cosmos 2322 Rocket 3.2 17:53:39 10° SW 17:59:05 51° WNW 18:04:36 10° NNE
Helios 1A Rocket 3.5 17:55:58 10° SE 17:59:40 36° ENE 18:03:23 10° N
Lacrosse 4 Rocket 1.9 17:56:03 10° S 18:00:13 43° ESE 18:04:29 10° NE
CZ-2D R/B 4.2 17:56:59 10° S 18:00:43 52° W 18:04:28 10° NNW
Nadezhda 3 Rocket 4.2 17:55:04 10° N 18:01:28 82° W 18:07:49 10° S
GP-B 3.5 17:57:19 10° SSE 18:01:29 41° E 18:05:40 10° NNE
ARGOS 3.3 17:58:31 10° SSE 18:03:48 57° ENE 18:09:08 10° N
Cosmos 1869 Rocket 4.1 18:03:58 10° SSE 18:07:56 35° E 18:11:57 10° NNE
CZ-4 R/B 1.4 18:05:19 10° SSE 18:09:11 86° WSW 18:13:10 10° NNW
Cosmos 2219 Rocket 2.4 18:04:06 10° S 18:09:24 47° ESE 18:14:47 10° NE
CZ-4B R/B 2.4 18:07:43 10° N 18:10:42 47° WNW 18:13:42 10° SSW
Cosmos 2154 Rocket 4.4 18:05:56 10° SSW 18:12:06 70° W 18:18:19 10° N
FALCON 9 DEB 3.4 18:11:17 10° NW 18:14:21 45° NNE 18:16:46 15° E
ERS-2 2.2 18:11:42 10° NNE 18:15:18 52° ESE 18:18:52 10° S
CZ-2C R/B 2.9 18:10:28 10° NNE 18:15:41 46° E 18:20:46 10° S
Cosmos 1238 Rocket 3.9 18:13:05 10° SE 18:16:08 21° E 18:18:50 10° NE
Cosmos 1689 Rocket 2.0 18:14:00 10° NNE 18:16:52 57° ESE 18:19:42 10° S
SL-08 RB Rocket 3.9 18:14:20 10° SSE 18:18:44 52° ENE 18:23:12 10° N
Cosmos 1378 4.0 18:15:45 10° NNE 18:19:00 28° ENE 18:22:14 10° SE
USA 305 3.9 18:15:30 10° NW 18:19:26 34° NNE 18:22:40 14° ENE
NOSS 3-2 (A) 3.9 18:16:59 10° S 18:21:57 34° ESE 18:27:29 10° NE
CREW DRAGON DEMO-1 DEB 3.0 18:19:30 10° SW 18:22:12 45° SSE 18:23:59 18° E
HJ-1C 3.2 18:20:01 10° SSE 18:23:18 78° ENE 18:26:37 10° N
FALCON 9 DEB 3.4 18:20:44 10° NW 18:23:50 46° NNE 18:25:51 19° E
COSMOS 2428 2.8 18:18:40 10° S 18:24:08 52° ESE 18:29:39 10° NE
Cosmos 1733 Rocket 4.4 18:22:26 10° SE 18:25:24 18° E 18:28:24 10° NE
SL-16 R/B 4.2 18:22:53 10° WSW 18:27:42 28° NW 18:32:33 10° N
SL-8 Rocket 3.9 18:27:03 10° S 18:33:14 73° E 18:39:24 10° NNE
USA 307 3.8 18:29:16 10° NW 18:33:15 37° NNE 18:35:52 18° ENE
CENTAUR R/B 3.2 18:28:51 10° SSE 18:33:44 29° ESE 18:39:18 10° NE
USA 306 3.8 18:30:31 10° NW 18:34:33 38° NNE 18:37:06 19° ENE
NOSS 0 Rocket 4.5 18:30:07 10° S 18:35:34 34° ESE 18:41:03 10° NE
ATLAS CENTAUR R/B 3.4 18:32:44 10° W 18:35:41 23° NW 18:38:42 10° NNE
Cosmos 1066 Rocket 4.3 18:31:47 10° N 18:37:30 58° ENE 18:43:15 10° SSE
Cosmos 1743 3.7 18:36:42 10° SE 18:39:55 25° E 18:43:09 10° NNE
Cosmos 1666 3.0 18:37:57 10° SSW 18:41:39 65° W 18:45:24 10° N
Cosmos 1703 Rocket 4.4 18:39:29 10° NNW 18:43:46 54° W 18:48:00 10° S
USA 308 3.7 18:40:05 10° NW 18:44:08 40° NNE 18:46:15 23° ENE
CSL-04 Rocket 3.8 18:39:14 10° SSE 18:44:46 85° WSW 18:50:18 10° NNW
Cosmos 2322 3.9 18:39:20 10° SSW 18:45:04 76° WNW 18:50:49 10° NNE
Cosmos 1844 Rocket 4.4 18:42:50 10° NW 18:47:47 34° WSW 18:52:43 10° SSW
Meteor 1-23 Rocket 4.3 18:42:24 10° N 18:47:54 54° ENE 18:53:26 10° SSE
Okean-O 3.9 18:43:50 10° S 18:48:03 43° W 18:52:18 10° NNW
BREEZE-M DEB (TANK) 2.9 18:47:18 10° SW 18:49:36 47° SSE 18:50:06 40° ESE
Cosmos 2366 rocket 4.0 18:45:09 10° S 18:51:28 81° E 18:57:51 10° N
ASTEX 1 3.6 18:47:19 10° NNE 18:52:03 47° E 18:56:44 10° SSE
H-2A R/B 3.5 18:47:00 10° SSW 18:52:08 41° W 18:57:16 10° NNW
SJ-6B 3.1 18:52:44 23° SE 18:54:56 49° ENE 18:58:49 10° N
Cosmos 1674 Rocket 4.5 18:51:28 10° NNE 18:55:11 27° ENE 18:55:15 27° ENE
Cosmos 990 Rocket 4.5 18:52:57 10° N 18:57:49 39° ENE 18:59:41 29° ESE
Ariane Rocket 3.3 18:55:34 22° SE 18:58:32 46° ENE 19:03:24 10° N
USA 186 1.3 18:59:36 59° NNE 18:59:36 59° NNE 19:01:53 10° N
Cosmos 2221 Rocket 3.6 18:54:58 10° N 18:59:20 56° ENE 19:02:11 21° SSE
Cosmos 1763 Rocket 4.2 18:56:59 10° SSE 19:01:36 31° E 19:06:15 10° NE
OBJECT-B 1.2 19:02:09 43° ENE 19:02:09 43° ENE 19:05:00 10° N
NOSS 3-2 (C) 3.7 18:58:28 10° S 19:03:36 40° ESE 19:08:10 15° NE
Meteor 1-11 Rocket 3.8 18:59:48 10° SSW 19:05:29 79° WNW 19:11:05 10° N
Cosmos 1378 Rocket 4.4 19:05:41 10° N 19:09:20 32° ENE 19:09:20 32° ENE
Cosmos 2360 Rocket 4.2 19:04:58 10° WSW 19:09:49 28° NW 19:14:42 10° N
Cosmos 468 Rocket 4.3 19:08:17 10° S 19:13:14 41° ESE 19:18:10 10° NE
FALCON 9 DEB 2.9 19:10:30 10° WNW 19:13:41 74° SW 19:13:45 73° SSW
Cosmos 1943 Rocket 3.7 19:10:49 10° N 19:14:52 19° NE 19:15:25 19° NE
Cosmos 1821 Rocket 4.0 19:09:42 10° SSE 19:15:43 55° E 19:21:42 10° NNE
Cosmos 2237 Rocket 2.3 19:11:02 10° S 19:16:32 52° ESE 19:22:03 10° NE
SJ 16-02 1.3 19:12:33 10° NNW 19:16:59 81° WSW 19:19:19 28° SSE
Cosmos 1727 Rocket 3.9 19:11:06 10° N 19:17:20 89° W 19:23:34 10° S
Cosmos 1544 2.9 19:13:59 10° S 19:17:36 78° E 19:21:17 10° NNE
DMSP B5D2-2 4.1 19:12:51 10° NNE 19:18:06 81° WNW 19:23:18 10° SSW
Cosmos 2278 Rocket 2.1 19:13:33 10° NNW 19:19:16 84° ENE 19:22:11 30° SSE
MOS 1 4.2 19:15:42 23° SSE 19:19:21 71° ENE 19:25:01 10° N
Cosmos 1536 3.6 19:16:09 10° SSW 19:20:03 53° WNW 19:23:57 10° N
USA 81 4.0 19:16:21 10° S 19:21:31 60° E 19:26:42 10° NNE
FALCON 9 DEB 3.4 19:18:25 10° WNW 19:21:22 54° SW 19:21:22 54° SW
Cosmos 1000 Rocket 4.5 19:15:47 10° N 19:22:02 61° ENE 19:25:17 29° SSE
SL-4 R/B 3.4 19:19:15 10° W 19:22:04 23° SW 19:22:57 21° SSW
SPOT 3 Rocket 4.0 19:24:24 41° ENE 19:24:41 41° ENE 19:29:34 10° N
SeaSat 1 2.6 19:19:50 10° NNE 19:24:47 75° WNW 19:29:42 10° SW
Abrixas rocket 4.2 19:25:42 10° W 19:26:46 18° WSW 19:26:46 18° WSW
MetOp-A 4.5 19:24:01 10° S 19:29:19 65° WSW 19:34:40 10° NNW
Cosmos 1934 Rocket 4.4 19:30:07 39° ENE 19:30:07 39° ENE 19:35:19 10° NNE
Resurs 01 Rocket 2.5 19:31:41 35° NE 19:31:41 35° NE 19:34:49 10° N
SME Rocket 3.8 19:25:24 10° NNE 19:32:44 89° WNW 19:37:32 10° SSW
Meteor 2-20 Rocket 4.3 19:27:18 10° N 19:33:28 82° E 19:37:10 26° SSE
USA 234 3.3 19:33:08 36° ENE 19:35:41 57° SE 19:42:06 10° SSW
Cosmos 2333 Rocket 3.7 19:32:01 10° WSW 19:37:16 37° NW 19:42:35 10° NNE
Gbstr 26 Del rocket 3.4 19:32:29 10° WNW 19:37:19 80° NNE 19:38:19 60° E
Lacrosse 4 Rocket 3.6 19:35:19 10° WSW 19:39:05 26° NW 19:42:54 10° NNE
Cosmos 1937 Rocket 3.6 19:34:55 10° NNW 19:39:49 53° ENE 19:39:49 53° ENE
Cosmos 2123 Rocket 4.1 19:34:25 10° N 19:40:31 52° ENE 19:41:02 51° E
USA 238 DEB 3.6 19:36:52 10° SW 19:43:26 87° NW 19:50:22 10° NE
USA 238 3.6 19:36:58 10° SW 19:43:32 87° NW 19:50:28 10° NE
Resurs 1-3 3.5 19:45:27 87° W 19:45:27 87° W 19:49:52 10° NNW
DELTA 2 R/B (1) 4.1 19:41:21 10° WSW 19:46:35 43° S 19:46:36 43° S
Cosmos 2219 Rocket 3.9 19:48:36 10° WSW 19:53:34 31° NW 19:58:33 10° N
Terra 4.3 20:00:53 10° NNE 20:00:53 10° NNE 20:00:58 10° NNE
USA 305 3.6 19:55:28 10° WNW 19:58:46 52° WNW 19:58:46 52° WNW
Cosmos 1980 3.9 19:55:40 10° SW 20:01:17 70° WNW 20:06:57 10° NNE
Cosmos 1733 Rocket 4.1 19:58:42 10° SSW 20:02:51 44° WNW 20:07:03 10° N
NOSS 3-2 (A) 4.1 20:06:55 10° WSW 20:12:29 50° NW 20:18:56 10° NE
USA 307 4.2 20:09:16 10° WNW 20:12:00 38° WNW 20:12:00 38° WNW
USA 306 4.3 20:10:31 10° WNW 20:13:13 37° WNW 20:13:13 37° WNW
Cosmos 1898 Rocket 4.1 20:14:24 10° NNW 20:19:30 53° WSW 20:19:30 53° WSW
Cosmos 2369 Rocket 3.7 20:14:47 10° N 20:18:00 26° NNE 20:18:00 26° NNE
CENTAUR R/B 2.9 20:17:50 10° SW 20:23:46 62° NW 20:30:55 10° NE
NOSS 3-2 (C) 4.3 20:48:52 10° WSW 20:54:23 45° NW 20:55:56 38° N
Cosmos 1943 Rocket 3.5 20:53:43 10° NNW 20:56:58 36° NNW 20:56:58 36° NNW
Cosmos 2237 Rocket 3.9 20:55:55 10° WSW 21:00:52 30° NW 21:05:51 10° N
Resurs 01 Rocket 4.3 21:09:14 17° WNW 21:09:14 17° WNW 21:10:44 10° NW
USA 234 4.1 21:20:31 44° WNW 21:20:31 44° WNW 21:25:05 10° WSW
